TimeMDT,TemperatureF,Dew PointF,Humidity,Sea Level PressureIn,VisibilityMPH,Wind Direction,Wind SpeedMPH,Gust SpeedMPH,PrecipitationIn,Events,Conditions,WindDirDegrees,DateUTC
12:53 AM,50.0,41.0,71,29.93,10.0,North,8.1,-,0.00,Rain,Light Rain,10,2011-10-11 06:53:00
1:53 AM,50.0,41.0,71,29.91,10.0,East,6.9,-,0.00,,Overcast,90,2011-10-11 07:53:00
2:53 AM,50.0,41.0,71,29.89,10.0,South,5.8,-,N/A,,Overcast,170,2011-10-11 08:53:00
3:53 AM,50.0,41.0,71,30.00,10.0,SE,6.9,-,N/A,,Overcast,130,2011-10-11 09:53:00
4:53 AM,48.9,42.1,77,29.89,10.0,ENE,4.6,-,N/A,,Overcast,70,2011-10-11 10:53:00
5:53 AM,51.8,39.2,62,30.00,10.0,East,9.2,-,N/A,,Mostly Cloudy,100,2011-10-11 11:53:00
6:53 AM,51.1,39.0,63,29.90,10.0,East,8.1,-,N/A,,Mostly Cloudy,90,2011-10-11 12:53:00
7:53 AM,48.2,37.4,66,30.01,10.0,East,8.1,-,N/A,,Scattered Clouds,100,2011-10-11 13:53:00
8:53 AM,53.1,39.9,61,29.94,10.0,East,4.6,-,N/A,,Scattered Clouds,100,2011-10-11 14:53:00
9:53 AM,55.0,39.0,55,29.94,10.0,ESE,9.2,-,N/A,,Scattered Clouds,120,2011-10-11 15:53:00
10:53 AM,57.9,39.0,49,29.92,10.0,SE,9.2,-,N/A,,Mostly Cloudy,140,2011-10-11 16:53:00
11:53 AM,60.1,37.0,42,29.92,10.0,Calm,Calm,-,N/A,,Mostly Cloudy,0,2011-10-11 17:53:00
12:53 PM,62.1,37.0,39,29.89,10.0,Calm,Calm,-,N/A,,Mostly Cloudy,0,2011-10-11 18:53:00
1:53 PM,66.0,37.9,36,29.86,10.0,WNW,9.2,-,N/A,,Mostly Cloudy,300,2011-10-11 19:53:00
2:53 PM,66.0,39.0,37,29.84,10.0,West,6.9,17.3,N/A,,Clear,280,2011-10-11 20:53:00
3:53 PM,68.0,37.0,32,29.82,10.0,WNW,9.2,-,N/A,,Scattered Clouds,290,2011-10-11 21:53:00
4:53 PM,69.1,33.1,26,29.82,10.0,WSW,11.5,20.7,N/A,,Mostly Cloudy,250,2011-10-11 22:53:00
5:53 PM,68.0,34.0,28,29.83,10.0,West,10.4,-,N/A,,Mostly Cloudy,260,2011-10-11 23:53:00
6:53 PM,64.9,35.1,33,29.84,10.0,Calm,Calm,-,N/A,,Mostly Cloudy,0,2011-10-12 00:53:00
7:53 PM,62.1,35.1,37,29.88,10.0,West,4.6,-,N/A,,Mostly Cloudy,270,2011-10-12 01:53:00
8:53 PM,59.0,34.0,39,29.91,10.0,North,10.4,-,N/A,,Clear,350,2011-10-12 02:53:00
9:53 PM,59.0,35.1,41,29.92,10.0,North,10.4,-,N/A,,Mostly Cloudy,350,2011-10-12 03:53:00
10:53 PM,57.0,35.1,44,29.93,10.0,North,6.9,-,N/A,,Scattered Clouds,360,2011-10-12 04:53:00
11:53 PM,51.1,34.0,52,29.96,10.0,Calm,Calm,-,N/A,,Clear,0,2011-10-12 05:53:00